Flag for Brazil Weather past 2 weeks in Curitiba, Paraná, Brazil

Now
52 °F

Mostly cloudy.


Feels Like: 50 °F
Forecast: 45 / 75 °F
Wind: 6 mph from North

Location: Curitiba Aeroporto

Current Time: Aug 21, 2014 at 5:43:40 AM

Latest Report: Aug 21, 2014 at 5:00 AM


Visibility: 5 mi

Pressure: 30.24 "Hg

Humidity: 94%

Dew point: 50 °F

Location of CuritibaLocation

Historic Weather in Curitiba — Graph

°F

Curitiba temperature yesterday

Maximum temperature yesterday: 73 °F (at 2:00 PM)
Minimum temperature yesterday: 43 °F (at 7:00 AM)
Average temperature yesterday: 56 °F

Past Weeks' High & Low Weather Summary

 TemperatureHumidityPressure
High79 °F (Aug 12, 11:00 AM)100% (Aug 6, 4:00 AM)30.45 "Hg (Aug 6, 4:00 AM)
Low41 °F (Aug 6, 4:00 AM)29% (Aug 20, 1:00 PM)30.01 "Hg (Aug 12, 4:00 PM)
Average57 °F86%30.26 "Hg
* Reported Aug 6 4:00 AM — Aug 21 4:00 AM, Curitiba, Weather by CustomWeather, © 2014

Note: Actual official high and low records may vary slightly from our data, if they occured in-between our weather recording intervals... More about our weather records

Advertising

Curitiba weather history for previous 24 hours

 ConditionsComfort  
Time TempWeatherWind HumidityBarometerVisibility
4:00 AM
Aug 21
52 °FFog.8 mph94%30.24 "Hg3 mi
3:00 AM50 °FFog.3 mph100%30.27 "Hg2 mi
2:00 AMN/AFog.No windN/AN/A1 mi
1:00 AM50 °FFog.1 mph100%N/A0 mi
12:00 AM50 °FFog.No wind100%N/A0 mi
11:00 PM
Aug 20
48 °FFog.5 mph100%30.30 "Hg2 mi
10:00 PM52 °FClear.3 mph100%30.30 "Hg10 mi
9:00 PM54 °FClear.2 mph94%30.30 "Hg10 mi
8:00 PM54 °FClear.5 mph94%30.30 "Hg10 mi
7:00 PM55 °FClear.6 mph94%30.27 "Hg10 mi
6:00 PM59 °FClear.7 mph82%30.27 "Hg10 mi
5:00 PM68 °FClear.9 mph53%30.24 "Hg10 mi
4:00 PM72 °FSunny.9 mph41%30.24 "Hg10 mi
3:00 PM73 °FSunny.8 mph33%30.24 "Hg10 mi
2:00 PM73 °FSunny.15 mph29%30.24 "Hg10 mi
1:00 PM72 °FSunny.13 mph29%30.27 "Hg10 mi
12:00 PM70 °FSunny.8 mph50%30.30 "Hg10 mi
11:00 AM66 °FSunny.7 mph64%30.30 "Hg10 mi
10:00 AM59 °FSunny.2 mph94%30.33 "Hg10 mi
9:10 AM52 °FFog.No wind100%30.33 "Hg1 mi
9:00 AM50 °FFog.No wind100%30.33 "Hg1 mi
8:00 AM46 °FFog.No wind100%N/A1 mi
7:00 AM43 °FFog.No wind100%N/A0 mi
6:00 AM45 °FFog.No wind100%N/A0 mi
5:00 AM46 °FFog.No wind100%N/A0 mi
Weather by CustomWeather, © 2014

See weather overviewHow to use our weather pages